Regional Weather Roundup
Issued by NWS

Home | Current Version | Previous Version | Text Only | Print | Product List | Glossary On
Versions: 1 2 3 4 5 6 7 8 9 10 11 12 13 14 15 16 17 18 19 20 21 22 23 24 25 26 27 28 29 30 31 32 33 34 35 36 37 38 39 40 41 42 43 44 45 46 47 48 49 50
000
ASUS44 KFWD 170803
RWRTX
NORTH TEXAS HOURLY WEATHER ROUNDUP
NATIONAL WEATHER SERVICE FORT WORTH TX
300 AM CDT THU AUG 17 2017

NOTE: "FAIR" INDICATES FEW OR NO CLOUDS BELOW 12,000 FEET WITH NO
SIGNIFICANT WEATHER AND/OR OBSTRUCTIONS TO VISIBILITY.

TXZ118-119-170900-
DALLAS/FORT WORTH METROPLEX

CITY           SKY/WX    TMP DP  RH WIND       PRES   REMARKS
DFW AIRPORT    MOCLDY    86  72  62 S15       29.92R HX  92
DALLAS LOVE    CLOUDY    86  71  60 S14       29.94R HX  91
FTW MEACHAM    CLOUDY    86  72  62 S12       29.93R HX  92
DAL-EXECUTIVE  CLOUDY    84  73  69 S10G21    29.94R HX  90
FTW-ALLIANCE   CLOUDY    84  71  65 S12G20    29.93R
FTW-NAS-JRB    PTCLDY    85  71  63 S15       29.93R HX  90
FTW-SPINKS     CLOUDY    84  70  63 S13       29.95S
ARLINGTON      CLOUDY    84  73  69 S12G21    29.94R HX  90
GRAND PRAIRIE  CLOUDY    84  69  61 S10G16    29.95R
ADDISON        PTCLDY    85  71  64 S12G21    29.96R HX  90
MESQUITE       CLOUDY    82  70  67 S13       29.95R
LANCASTER      CLOUDY    83  72  69 S12       29.96R
$$

TXZ091>094-102>105-117-120-121-131>134-170900-
NORTH CENTRAL TEXAS

CITY           SKY/WX    TMP DP  RH WIND       PRES   REMARKS
SHRMAN/DENISON CLOUDY    74  68  82 N9G29     30.00R
BOWIE          HVY RAIN  76  72  87 N13G18    29.98R
BRIDGEPORT     MOCLDY    83  69  62 S10       29.94R
DECATUR        CLOUDY    82  71  67 S14G21    29.95R
DENTON         MOCLDY    84  72  67 S13       29.92R
MCKINNEY       CLOUDY    82  74  76 S10       29.94R
BONHAM         CLOUDY    81  73  78 S7        29.95R
ROCKWALL       CLOUDY    83  72  69 S10G24    29.94R
TERRELL        CLOUDY    83  72  69 S12       29.96R
WAXAHACHIE     MOCLDY    82  73  75 S10       29.98R
CLEBURNE       CLOUDY    82  73  74 S15       29.97R
GRANBURY       MOCLDY    85  71  63 S9        29.95S
$$

TXZ083>090-098>101-113>116-127>130-139>142-154-155-170900-
WESTERN NORTH TEXAS

CITY           SKY/WX    TMP DP  RH WIND       PRES   REMARKS
WICHITA FALLS  TSTM     N/A N/A N/A MISG      29.91F
WF-KICKAPOO    CLOUDY    74  72  93 CALM      29.94F
VERNON         MOCLDY    73  67  81 SE5       29.95R
ABILENE        CLOUDY    77  65  66 S9        29.96R
ABILENE-DYESS  DRIZZLE   76  66  72 W5        29.95R
GRAHAM         CLOUDY    83  69  62 CALM      29.93R
BRECKENRIDGE   CLOUDY    82  68  62 CALM      29.93S
CISCO          CLOUDY    81  70  69 S7        29.96R
EASTLAND       CLOUDY    81  69  67 S3        29.95R
RANGER         CLOUDY    80  68  68 S6        29.96R
MINERAL WELLS  CLOUDY    81  70  69 S9        29.93R
STEPHENVILLE   PTCLDY    80  70  71 S7        29.99R
COMANCHE       CLOUDY    81  71  70 S8        29.98S
BROWNWOOD      CLOUDY    81  68  65 SE7       29.97F
COLEMAN        CLOUDY    77  66  70 S6        29.98R
$$

TXZ143>147-156>162-174-175-170900-
CENTRAL TEXAS

CITY           SKY/WX    TMP DP  RH WIND       PRES   REMARKS
WACO           CLOUDY    83  74  74 S13       29.97R
WACO-MCGREGOR  CLOUDY    82  74  76 S15       29.98R
HILLSBORO      MOCLDY    83  74  74 S16G23    29.97R
CORSICANA      CLOUDY    84  75  74 S13       29.98  HX  92
MEXIA          CLOUDY    81  74  77 S10G16    29.97S
HEARNE         CLOUDY    82  78  89 S9        29.99R HX  90
CAMERON        CLOUDY    81  76  83 S8        29.97R
TEMPLE         MOCLDY    81  75  82 S14       29.98R
KILLEEN        CLOUDY    80  74  80 S12       29.98R
KILLEEN-SKYLRK MOCLDY    81  74  79 S14G20    29.99R
FORT HOOD      CLOUDY    80  73  80 S9        29.96R
HAMILTON       CLOUDY    81  71  70 S15G21    29.99R
LAMPASAS       CLOUDY    81  75  84 S7        29.99R
$$

TXZ095>097-106>112-122>126-135>138-148>153-164>167-170900-
EAST TEXAS

CITY           SKY/WX    TMP DP  RH WIND       PRES   REMARKS
PARIS          CLOUDY    81  76  84 S10       29.93F
SULPHUR SPRNGS CLOUDY    83  74  74 S10       29.96S HX  90
MOUNT PLEASANT CLOUDY    81  76  84 S12       29.97S
GILMER         CLOUDY    81  76  85 S7        29.98R
MINEOLA        LGT RAIN  82  75  78 S6        29.96S
TYLER          CLOUDY    82  77  84 S12       29.99R HX  90
LONGVIEW       CLOUDY    82  78  88 S9        29.97R HX  91
MARSHALL         N/A     78  74  87 S6        30.01R
ATHENS         CLOUDY    81  72  74 S8G16     29.97R
PALESTINE      CLOUDY    82  76  82 S8        30.00R
JACKSONVILLE   CLOUDY    80  77  91 S8        30.02R
HENDERSON      CLOUDY    80  76  88 S8        30.00S
CENTER         MOSUNNY   83  81  93 S3        30.02R HX  96
LUFKIN         CLEAR     79  77  94 CALM      30.00R
$$

SUPPLEMENTAL OBSERVATIONS (NWS FORT WORTH AREA)

CITY           SKY/WX    TMP DP  RH WIND       PRES   REMARKS
$$

SUPPLEMENTAL OBSERVATIONS (NWS NORMAN AREA)

CITY           SKY/WX    TMP DP  RH WIND       PRES   REMARKS
GOODLETT         N/A     75  66  73 N9        29.97R
ODELL            N/A     73  70  93 CALM      29.96R
CROWELL          N/A     75  72  88 N2        29.96R
KNOX CITY        N/A     76  65  70 S7        29.97R
SEYMOUR          N/A     77  69  77 S5        29.96R
$$

SUPPLEMENTAL OBSERVATIONS (NWS SAN ANGELO AREA)

CITY           SKY/WX    TMP DP  RH WIND       PRES   REMARKS
HASKELL          N/A     75  66  75 W3        29.97R
THROCKMORTON     N/A     79  68  69 NW5       29.97R
STAMFORD         N/A     77  67  72 NW5       29.97R
CLYDE            N/A     76  68  77 S5        29.98S
$$

SUPPLEMENTAL OBSERVATIONS (NWS SHREVEPORT AREA)

CITY           SKY/WX    TMP DP  RH WIND       PRES   REMARKS
$$

SUPPLEMENTAL OBSERVATIONS ARE A COLLECTION OF AUTOMATED INSTRUMENTS
THAT ARE MAINTAINED BY A VARIETY OF FEDERAL AND STATE AGENCIES.
CERTAIN ELEMENTS...SUCH AS HUMIDITY VALUES AND SUSTAINED WIND
SPEEDS...MAY BE APPROXIMATED.




USA.gov is the U.S. government's official web portal to all federal, state and local government web resources and services.